When you browse on this site, cookies collect data to enhance your experience and personalize the content and advertising you see.
Visit our Privacy Policy to learn more. By continuing to use the site, you agree to this use of cookies and data.
  • în România
  • Lista ţărilor
  • Pe 7 zile
  • Temperatura apei
  • Hartă satelitară
  • Meteo pe hartă
  • Widget-uri
  • user-avatar
    Intrare

    Meteo pe oră la Oyem

    Astăzi, 22 Februarie, Vineri

    Timp Temperatura Precipitaţii Vânt Presiune Umiditate
    00:00 +23°C° 0 mm 1 m/s 704 mmHg 95%
    01:00 +23°C° 0 mm 1 m/s 704 mmHg 96%
    02:00 +23°C° 0.1 mm 1 m/s 704 mmHg 97%
    03:00 +23°C° 0.1 mm 1 m/s 704 mmHg 97%
    04:00 +23°C° 0.1 mm 1 m/s 704 mmHg 97%
    05:00 +23°C° 0.1 mm 1 m/s 704 mmHg 97%
    06:00 +23°C° 0.1 mm 1 m/s 705 mmHg 97%
    07:00 +23°C° 0 mm 1 m/s 705 mmHg 96%
    08:00 +24°C° 0 mm 1 m/s 705 mmHg 91%
    09:00 +25°C° 0 mm 1 m/s 705 mmHg 86%
    10:00 +26°C° 0 mm 1 m/s 705 mmHg 82%
    11:00 +28°C° 0.2 mm 1 m/s 705 mmHg 74%
    12:00 +29°C° 0.2 mm 1 m/s 705 mmHg 67%
    13:00 +31°C° 0.2 mm 2 m/s 705 mmHg 60%
    14:00 +30°C° 0.6 mm 1 m/s 704 mmHg 64%
    15:00 +30°C° 0.6 mm 1 m/s 703 mmHg 67%
    16:00 +29°C° 0.6 mm 1 m/s 702 mmHg 71%
    17:00 +27°C° 0.9 mm 1 m/s 703 mmHg 79%
    18:00 +26°C° 0.9 mm 1 m/s 703 mmHg 86%
    19:00 +24°C° 0.9 mm 1 m/s 703 mmHg 93%
    20:00 +24°C° 0.1 mm 1 m/s 703 mmHg 94%
    21:00 +23°C° 0.1 mm 1 m/s 704 mmHg 94%
    22:00 +23°C° 0.1 mm 1 m/s 704 mmHg 95%
    23:00 +23°C° 0.2 mm 1 m/s 704 mmHg 95%

    Mâine, 23 Februarie, Sâmbătă

    Timp Temperatura Precipitaţii Vânt Presiune Umiditate
    00:00 +23°C° 0.2 mm 1 m/s 704 mmHg 96%
    01:00 +23°C° 0.2 mm 1 m/s 704 mmHg 96%
    02:00 +23°C° 0 mm 1 m/s 704 mmHg 96%
    03:00 +20°C° 0 mm 0 m/s 703 mmHg 97%
    04:00 +20°C° 0 mm 0 m/s 703 mmHg 97%
    05:00 +20°C° 0 mm 0 m/s 703 mmHg 97%
    06:00 +20°C° 0 mm 0 m/s 704 mmHg 97%
    07:00 +20°C° 0 mm 0 m/s 704 mmHg 97%
    08:00 +22°C° 0 mm 0 m/s 704 mmHg 87%
    09:00 +24°C° 0 mm 0 m/s 705 mmHg 77%
    10:00 +28°C° 0 mm 1 m/s 706 mmHg 68%
    11:00 +30°C° 0 mm 1 m/s 705 mmHg 61%
    12:00 +31°C° 0 mm 1 m/s 705 mmHg 54%
    13:00 +33°C° 0 mm 1 m/s 704 mmHg 47%
    14:00 +32°C° 0 mm 1 m/s 703 mmHg 49%
    15:00 +32°C° 0 mm 1 m/s 702 mmHg 50%
    16:00 +31°C° 0 mm 1 m/s 702 mmHg 52%
    17:00 +30°C° 0 mm 1 m/s 702 mmHg 58%
    18:00 +28°C° 0 mm 1 m/s 702 mmHg 65%
    19:00 +25°C° 0 mm 0 m/s 702 mmHg 71%
    20:00 +24°C° 0 mm 0 m/s 702 mmHg 73%
    21:00 +24°C° 0 mm 0 m/s 703 mmHg 74%
    22:00 +23°C° 0 mm 0 m/s 703 mmHg 76%
    23:00 +23°C° 0 mm 0 m/s 703 mmHg 79%

    Poimâine, 24 Februarie, Duminică

    Timp Temperatura Precipitaţii Vânt Presiune Umiditate
    00:00 +22°C° 0 mm 0 m/s 703 mmHg 81%
    01:00 +22°C° 0 mm 0 m/s 703 mmHg 84%
    02:00 +21°C° 0 mm 0 m/s 702 mmHg 86%
    03:00 +21°C° 0 mm 0 m/s 702 mmHg 88%
    04:00 +22°C° 0 mm 1 m/s 701 mmHg 90%
    05:00 +22°C° 0 mm 1 m/s 702 mmHg 89%
    06:00 +22°C° 0 mm 1 m/s 702 mmHg 89%
    07:00 +20°C° 0 mm 0 m/s 702 mmHg 88%
    08:00 +25°C° 0 mm 1 m/s 703 mmHg 78%
    09:00 +27°C° 0 mm 1 m/s 704 mmHg 67%
    10:00 +30°C° 0 mm 1 m/s 705 mmHg 57%
    11:00 +32°C° 0 mm 1 m/s 704 mmHg 51%
    12:00 +34°C° 0 mm 1 m/s 703 mmHg 45%
    13:00 +36°C° 0 mm 1 m/s 703 mmHg 40%
    14:00 +33°C° 0 mm 0 m/s 702 mmHg 44%
    15:00 +31°C° 0 mm 0 m/s 701 mmHg 48%
    16:00 +30°C° 0 mm 0 m/s 700 mmHg 52%
    17:00 +29°C° 0 mm 0 m/s 701 mmHg 56%
    18:00 +27°C° 0 mm 0 m/s 701 mmHg 61%
    19:00 +26°C° 0 mm 0 m/s 701 mmHg 65%
    20:00 +27°C° 0.4 mm 1 m/s 702 mmHg 70%
    21:00 +26°C° 0.4 mm 1 m/s 702 mmHg 75%
    22:00 +25°C° 0.4 mm 1 m/s 703 mmHg 81%
    23:00 +24°C° 0.1 mm 1 m/s 702 mmHg 85%

    25 Februarie, Luni

    Timp Temperatura Precipitaţii Vânt Presiune Umiditate
    00:00 +24°C° 0.1 mm 1 m/s 702 mmHg 90%
    01:00 +23°C° 0.1 mm 1 m/s 702 mmHg 94%
    02:00 +23°C° 0 mm 1 m/s 701 mmHg 95%
    03:00 +22°C° 0 mm 1 m/s 701 mmHg 96%
    04:00 +22°C° 0 mm 1 m/s 701 mmHg 97%
    05:00 +22°C° 0.2 mm 1 m/s 701 mmHg 97%
    06:00 +20°C° 0.2 mm 0 m/s 701 mmHg 97%
    07:00 +20°C° 0.2 mm 0 m/s 702 mmHg 97%
    08:00 +25°C° 0 mm 1 m/s 703 mmHg 86%
    09:00 +27°C° 0 mm 1 m/s 703 mmHg 76%
    10:00 +29°C° 0 mm 1 m/s 704 mmHg 65%
    11:00 +30°C° 0.3 mm 1 m/s 703 mmHg 62%
    12:00 +31°C° 0.3 mm 1 m/s 703 mmHg 59%
    13:00 +33°C° 0.3 mm 1 m/s 702 mmHg 56%
    14:00 +33°C° 0.4 mm 1 m/s 702 mmHg 53%
    15:00 +33°C° 0.4 mm 1 m/s 701 mmHg 51%
    16:00 +33°C° 0.4 mm 1 m/s 701 mmHg 49%
    17:00 +30°C° 1.5 mm 1 m/s 701 mmHg 62%
    18:00 +28°C° 1.5 mm 1 m/s 701 mmHg 75%
    19:00 +25°C° 1.5 mm 1 m/s 701 mmHg 89%
    20:00 +24°C° 1.7 mm 1 m/s 702 mmHg 91%
    21:00 +24°C° 1.7 mm 1 m/s 702 mmHg 92%
    22:00 +24°C° 1.7 mm 1 m/s 703 mmHg 94%
    23:00 +23°C° 0 mm 1 m/s 703 mmHg 95%

    26 Februarie, Marţi

    Timp Temperatura Precipitaţii Vânt Presiune Umiditate
    00:00 +23°C° 0 mm 1 m/s 703 mmHg 96%
    01:00 +21°C° 0 mm 0 m/s 702 mmHg 97%
    02:00 +21°C° 0 mm 0 m/s 702 mmHg 97%
    03:00 +21°C° 0 mm 0 m/s 702 mmHg 98%
    04:00 +21°C° 0 mm 0 m/s 702 mmHg 98%
    05:00 +21°C° 0.7 mm 0 m/s 702 mmHg 98%
    06:00 +21°C° 0.7 mm 0 m/s 703 mmHg 97%
    07:00 +21°C° 0.7 mm 0 m/s 703 mmHg 97%
    08:00 +22°C° 1.1 mm 0 m/s 704 mmHg 93%
    09:00 +23°C° 1.1 mm 0 m/s 704 mmHg 89%
    10:00 +24°C° 1.1 mm 0 m/s 705 mmHg 85%
    11:00 +26°C° 0.4 mm 0 m/s 704 mmHg 76%
    12:00 +30°C° 0.4 mm 1 m/s 703 mmHg 67%
    13:00 +32°C° 0.4 mm 1 m/s 703 mmHg 58%
    14:00 +31°C° 1.3 mm 1 m/s 702 mmHg 64%
    15:00 +30°C° 1.3 mm 1 m/s 702 mmHg 71%
    16:00 +29°C° 1.3 mm 1 m/s 701 mmHg 77%
    17:00 +27°C° 2.7 mm 1 m/s 702 mmHg 83%
    18:00 +23°C° 2.7 mm 0 m/s 702 mmHg 88%
    19:00 +22°C° 2.7 mm 0 m/s 702 mmHg 94%
    20:00 +24°C° 0.3 mm 1 m/s 703 mmHg 95%
    21:00 +23°C° 0.3 mm 1 m/s 703 mmHg 95%
    22:00 +23°C° 0.3 mm 1 m/s 704 mmHg 96%
    23:00 +23°C° 0 mm 1 m/s 703 mmHg 96%

    27 Februarie, Miercuri

    Timp Temperatura Precipitaţii Vânt Presiune Umiditate
    00:00 +23°C° 0 mm 1 m/s 703 mmHg 97%
    01:00 +23°C° 0 mm 1 m/s 703 mmHg 97%
    02:00 +21°C° 0 mm 0 m/s 702 mmHg 97%
    03:00 +20°C° 0 mm 0 m/s 702 mmHg 97%
    04:00 +20°C° 0 mm 0 m/s 702 mmHg 98%
    05:00 +20°C° 0 mm 0 m/s 702 mmHg 97%
    06:00 +20°C° 0 mm 0 m/s 703 mmHg 97%
    07:00 +22°C° 0 mm 1 m/s 703 mmHg 97%
    08:00 +23°C° 1 mm 1 m/s 704 mmHg 93%
    09:00 +23°C° 1 mm 0 m/s 704 mmHg 89%
    10:00 +24°C° 1 mm 0 m/s 705 mmHg 85%
    11:00 +27°C° 1.2 mm 1 m/s 704 mmHg 80%
    12:00 +28°C° 1.2 mm 1 m/s 704 mmHg 75%
    13:00 +29°C° 1.2 mm 1 m/s 703 mmHg 70%
    14:00 +29°C° 0.9 mm 1 m/s 703 mmHg 71%
    15:00 +29°C° 0.9 mm 1 m/s 702 mmHg 72%
    16:00 +27°C° 0.9 mm 0 m/s 702 mmHg 72%
    17:00 +27°C° 0.8 mm 1 m/s 702 mmHg 79%
    18:00 +26°C° 0.8 mm 1 m/s 702 mmHg 86%
    19:00 +24°C° 0.8 mm 1 m/s 702 mmHg 93%
    20:00 +24°C° 0.1 mm 1 m/s 703 mmHg 94%
    21:00 +23°C° 0.1 mm 1 m/s 703 mmHg 94%
    22:00 +21°C° 0.1 mm 0 m/s 703 mmHg 95%
    23:00 +23°C° 0 mm 1 m/s 703 mmHg 96%
    Arată mai mult